TimeEDT,TemperatureF,Dew PointF,Humidity,Sea Level PressureIn,VisibilityMPH,Wind Direction,Wind SpeedMPH,Gust SpeedMPH,PrecipitationIn,Events,Conditions,WindDirDegrees,DateUTC
12:15 AM,32.0,28.4,87,30.15,10.0,North,5.8,-,N/A,,Overcast,360,2014-03-29 04:15:00
12:35 AM,32.0,28.4,87,30.15,10.0,NNW,5.8,-,N/A,,Overcast,330,2014-03-29 04:35:00
12:55 AM,32.0,28.4,87,30.15,10.0,NNE,3.5,-,N/A,,Overcast,30,2014-03-29 04:55:00
1:15 AM,32.0,28.4,87,30.17,10.0,North,5.8,-,N/A,,Overcast,360,2014-03-29 05:15:00
1:35 AM,32.0,28.4,87,30.17,10.0,NE,3.5,-,N/A,,Overcast,50,2014-03-29 05:35:00
1:55 AM,32.0,28.4,87,30.15,10.0,NE,5.8,-,N/A,,Overcast,50,2014-03-29 05:55:00
2:15 AM,32.0,28.4,87,30.15,10.0,East,4.6,-,N/A,,Overcast,80,2014-03-29 06:15:00
2:35 AM,32.0,28.4,87,30.16,10.0,East,4.6,-,N/A,,Overcast,80,2014-03-29 06:35:00
2:55 AM,32.0,28.4,87,30.15,10.0,North,-9999.0,-,N/A,,Overcast,0,2014-03-29 06:55:00
3:15 AM,32.0,28.4,87,30.15,10.0,North,-9999.0,-,N/A,,Overcast,0,2014-03-29 07:15:00
3:35 AM,32.0,28.4,87,30.14,10.0,ENE,6.9,-,N/A,,Overcast,60,2014-03-29 07:35:00
3:55 AM,32.0,28.4,87,30.14,10.0,ENE,8.1,-,N/A,,Overcast,70,2014-03-29 07:55:00
4:15 AM,30.2,28.4,93,30.13,10.0,ENE,5.8,-,N/A,,Overcast,60,2014-03-29 08:15:00
4:35 AM,30.2,28.4,93,30.11,10.0,NE,5.8,-,N/A,,Overcast,50,2014-03-29 08:35:00
4:55 AM,30.2,28.4,93,30.11,10.0,NE,5.8,-,N/A,,Overcast,50,2014-03-29 08:55:00
5:15 AM,30.2,28.4,93,30.12,10.0,NE,6.9,-,N/A,,Overcast,40,2014-03-29 09:15:00
5:35 AM,30.2,28.4,93,30.11,10.0,ENE,4.6,-,N/A,,Overcast,60,2014-03-29 09:35:00
5:55 AM,30.2,28.4,93,30.12,10.0,NE,6.9,-,N/A,,Overcast,50,2014-03-29 09:55:00
6:15 AM,30.2,28.4,93,30.12,10.0,NE,9.2,-,N/A,,Overcast,40,2014-03-29 10:15:00
6:35 AM,30.2,28.4,93,30.12,10.0,NE,9.2,-,N/A,,Overcast,50,2014-03-29 10:35:00
6:55 AM,30.2,28.4,93,30.12,10.0,ENE,8.1,-,N/A,,Overcast,70,2014-03-29 10:55:00
7:15 AM,30.2,28.4,93,30.13,10.0,ENE,4.6,-,N/A,,Overcast,60,2014-03-29 11:15:00
7:35 AM,30.2,28.4,93,30.14,10.0,East,5.8,-,N/A,,Overcast,80,2014-03-29 11:35:00
7:55 AM,30.2,28.4,93,30.13,10.0,ENE,8.1,-,N/A,,Overcast,70,2014-03-29 11:55:00
8:15 AM,30.2,28.4,93,30.12,10.0,ENE,6.9,-,N/A,,Overcast,60,2014-03-29 12:15:00
8:35 AM,32.0,28.4,87,30.12,10.0,ENE,5.8,-,N/A,,Overcast,70,2014-03-29 12:35:00
8:55 AM,32.0,28.4,87,30.10,10.0,ENE,9.2,-,N/A,,Overcast,70,2014-03-29 12:55:00
9:15 AM,32.0,28.4,87,30.09,10.0,ENE,10.4,-,N/A,,Overcast,70,2014-03-29 13:15:00
9:35 AM,32.0,28.4,87,30.08,10.0,East,10.4,-,N/A,,Overcast,80,2014-03-29 13:35:00
9:55 AM,33.8,30.2,87,30.08,10.0,ENE,9.2,-,N/A,,Overcast,70,2014-03-29 13:55:00
10:15 AM,33.8,30.2,87,30.07,10.0,East,9.2,-,N/A,,Overcast,80,2014-03-29 14:15:00
10:35 AM,33.8,30.2,87,30.07,10.0,East,10.4,-,N/A,,Overcast,80,2014-03-29 14:35:00
10:55 AM,35.6,32.0,87,30.06,10.0,East,10.4,-,N/A,,Overcast,80,2014-03-29 14:55:00
11:15 AM,35.6,30.2,81,30.06,10.0,East,8.1,-,N/A,,Overcast,80,2014-03-29 15:15:00
11:35 AM,35.6,33.8,93,30.06,10.0,East,5.8,-,N/A,,Overcast,80,2014-03-29 15:35:00
11:55 AM,35.6,32.0,87,30.05,10.0,ENE,5.8,-,N/A,,Overcast,70,2014-03-29 15:55:00
12:15 PM,37.4,33.8,87,30.04,10.0,NE,10.4,-,N/A,,Overcast,40,2014-03-29 16:15:00
12:35 PM,37.4,33.8,87,30.02,10.0,NE,8.1,-,N/A,,Overcast,40,2014-03-29 16:35:00
12:55 PM,37.4,33.8,87,30.01,10.0,ENE,8.1,-,N/A,,Overcast,60,2014-03-29 16:55:00
1:15 PM,39.2,33.8,81,29.99,10.0,NNE,12.7,-,N/A,,Overcast,30,2014-03-29 17:15:00
1:35 PM,39.2,33.8,81,29.98,10.0,NE,11.5,-,N/A,,Overcast,40,2014-03-29 17:35:00
1:55 PM,39.2,33.8,81,29.97,10.0,NE,11.5,-,N/A,,Overcast,50,2014-03-29 17:55:00
2:15 PM,39.2,33.8,81,29.95,10.0,NE,12.7,-,N/A,,Overcast,40,2014-03-29 18:15:00
2:35 PM,39.2,33.8,81,29.93,10.0,NE,15.0,-,N/A,,Overcast,40,2014-03-29 18:35:00
2:55 PM,37.4,33.8,87,29.92,10.0,NE,11.5,-,N/A,,Overcast,50,2014-03-29 18:55:00
3:15 PM,37.4,33.8,87,29.92,6.0,ENE,12.7,-,N/A,,Overcast,60,2014-03-29 19:15:00
3:35 PM,37.4,33.8,87,29.90,5.0,NE,15.0,23.0,N/A,,Overcast,50,2014-03-29 19:35:00
3:55 PM,35.6,33.8,93,29.90,4.0,NE,10.4,17.3,0.02,,Overcast,50,2014-03-29 19:55:00
4:15 PM,35.6,33.8,93,29.89,3.0,NE,13.8,18.4,0.04,,Overcast,40,2014-03-29 20:15:00
4:35 PM,35.6,33.8,93,29.89,3.0,NNE,15.0,-,0.08,,Overcast,30,2014-03-29 20:35:00
4:55 PM,35.6,33.8,93,29.88,1.2,NE,13.8,-,0.15,,Overcast,40,2014-03-29 20:55:00
5:15 PM,35.6,32.0,87,29.87,3.0,NE,12.7,-,0.01,,Overcast,40,2014-03-29 21:15:00
5:35 PM,33.8,32.0,93,29.87,3.0,NE,13.8,-,0.04,,Overcast,40,2014-03-29 21:35:00
5:55 PM,33.8,32.0,93,29.87,3.0,NE,15.0,20.7,0.07,,Overcast,40,2014-03-29 21:55:00
6:15 PM,32.0,30.2,93,29.87,3.0,NNE,13.8,19.6,0.02,,Overcast,30,2014-03-29 22:15:00
6:35 PM,33.8,30.2,87,29.86,5.0,NNE,16.1,23.0,0.04,,Overcast,30,2014-03-29 22:35:00
6:55 PM,32.0,30.2,93,29.86,8.0,NNE,18.4,23.0,0.05,,Overcast,30,2014-03-29 22:55:00
7:15 PM,32.0,28.4,87,29.87,5.0,NNE,13.8,-,0.03,,Overcast,30,2014-03-29 23:15:00
7:35 PM,32.0,28.4,87,29.87,3.0,NNE,17.3,21.9,0.08,,Overcast,30,2014-03-29 23:35:00
7:55 PM,32.0,30.2,93,29.88,4.0,NNE,11.5,-,0.14,,Overcast,20,2014-03-29 23:55:00
8:15 PM,32.0,30.2,93,29.87,5.0,NNE,12.7,-,0.05,,Overcast,20,2014-03-30 00:15:00
8:35 PM,30.2,30.2,100,29.87,10.0,North,11.5,-,0.07,,Overcast,10,2014-03-30 00:35:00
8:55 PM,28.4,28.4,100,29.87,5.0,NNE,12.7,17.3,0.09,,Overcast,20,2014-03-30 00:55:00
9:15 PM,30.2,28.4,93,29.87,2.5,NNE,13.8,-,0.03,,Overcast,20,2014-03-30 01:15:00
9:35 PM,30.2,28.4,93,29.87,1.8,NNE,11.5,19.6,0.07,,Overcast,20,2014-03-30 01:35:00
9:55 PM,30.2,28.4,93,29.87,1.2,NNE,13.8,19.6,0.11,,Overcast,20,2014-03-30 01:55:00
10:15 PM,30.2,26.6,86,29.86,1.2,NNE,13.8,23.0,0.03,,Overcast,30,2014-03-30 02:15:00
10:35 PM,28.4,26.6,93,29.86,1.2,NNE,15.0,21.9,0.05,,Overcast,20,2014-03-30 02:35:00
10:55 PM,28.4,26.6,93,29.85,1.5,NNE,15.0,23.0,0.07,,Overcast,20,2014-03-30 02:55:00
11:15 PM,28.4,26.6,93,29.84,1.8,North,15.0,21.9,0.02,,Overcast,10,2014-03-30 03:15:00
11:35 PM,28.4,26.6,93,29.85,2.5,North,16.1,21.9,0.03,,Overcast,10,2014-03-30 03:35:00
11:55 PM,28.4,26.6,93,29.85,2.5,North,16.1,23.0,0.03,,Overcast,10,2014-03-30 03:55:00